Regional Weather Roundup
Issued by NWS

Home | Current Version | Previous Version | Text Only | Print | Product List | Glossary Off
Versions: 1 2 3 4 5 6 7 8 9 10 11 12 13 14 15 16 17 18 19 20 21 22 23 24 25 26 27 28 29 30 31 32 33 34 35 36 37 38 39 40 41 42 43 44 45 46 47 48 49 50

000
ASUS43 KLOT 251906
RWRIL

ILLINOIS REGIONAL WEATHER ROUNDUP
NATIONAL WEATHER SERVICE CHICAGO/ROMEOVILLE IL
100 PM CST THU DEC 25 2014

NOTE: "FAIR" INDICATES FEW OR NO CLOUDS BELOW 12,000 FEET WITH NO
SIGNIFICANT WEATHER AND/OR OBSTRUCTIONS TO VISIBILITY.

* THESE STATIONS ARE NOT UNDER NWS QUALITY CONTROL. THEY ALSO MAY NOT
  REPORT WEATHER SUCH AS PRECIPITATION OR FOG.

ILZ001-002-007-009-015-016-024-252000-
NORTHWEST ILLINOIS

CITY           SKY/WX    TMP DP  RH WIND       PRES   REMARKS
MOLINE         SUNNY     46  32  58 S15       29.88F
STERLING*      MOSUNNY   46  34  61 SW5G16    29.91F
SAVANNA*       SUNNY     44  31  60 S13       29.88F
$$

ILZ003-004-008-010-011-017-018-252000-
NORTH CENTRAL ILLINOIS

CITY           SKY/WX    TMP DP  RH WIND       PRES   REMARKS
ROCKFORD       CLOUDY    42  32  67 S17       29.93F
FREEPORT*      MOSUNNY   40  33  75 S17       29.90F
ROCHELLE*      MOSUNNY   41  35  77 S15       29.93S
DE KALB*       MOSUNNY   39  32  76 S16       29.94S WCI  31
PERU*          MOSUNNY   45  32  60 SW14      29.94S
$$

ILZ005-006-012>014-019>023-252000-
NORTHEAST ILLINOIS

CITY           SKY/WX    TMP DP  RH WIND       PRES   REMARKS
CHICAGO-OHARE  PTSUNNY   39  29  67 SW16G24   29.95R WCI  30
CHICAGO-MIDWAY PTSUNNY   41  31  67 SW13      29.96S
AURORA         MOSUNNY   41  31  67 S15G21    29.95F
LANSING*       CLOUDY    38  32  76 SW12G22   29.99S WCI  31
JOLIET*        MOSUNNY   41  32  70 SW10G17   29.97S
WAUKEGAN       MOSUNNY   38  29  70 SW18G24   29.92R WCI  28
DUPAGE AIRPORT MOSUNNY   40  31  70 SW15      29.94F
KANKAKEE*      CLOUDY    41  35  79 SW15      30.01R
WHEELING       MOSUNNY   40  29  64 SW14G23   29.96S
MORRIS*        MOSUNNY   42  35  76 SW16      29.96S
ROMEOVILLE*    PTSUNNY   40  31  70 SW14      29.96S
NORTHERLY ISL    N/A     39  28  65 S14         N/A  WCI  31
$$

LMZ740>746-252000-
SOUTHERN LAKE MICHIGAN

STATION/POSITION SKY/WX   TEMP    WIND        PRES    VSBY  WAVE
                          AIR SEA DIR/SP/G                  HT/PER
                          (F)     (DEG/KT/KT) (MB)    (MI)  (FT/S)
WAUKEGAN HARBOR            38                   N/A
HARRISON CRIB              38     210/ 19/ 22   N/A
BURNHAM HARBOR             39     210/ 10/ 15   N/A
CALUMET HARBOR             38     210/ 11/ 17 1013.6F
MICHIGAN CITY              37     190/ 17/ 22   N/A
$$

ILZ025>027-034>036-040-047-049-050-058-095>099-252000-
WEST-CENTRAL ILLINOIS

CITY           SKY/WX    TMP DP  RH WIND       PRES   REMARKS
QUINCY         MOSUNNY   47  32  56 S13       29.91S
GALESBURG*     SUNNY     46  34  65 S15       29.91S
MACOMB*        SUNNY     47  36  66 S14       29.93F
JACKSONVILLE*  SUNNY     49  35  59 S13G20    29.95R
PITTSFIELD*    SUNNY     48  34  59 S14       29.94S
$$

ILZ028>032-037-038-041>044-048-051>054-059>061-252000-
CENTRAL ILLINOIS

CITY           SKY/WX    TMP DP  RH WIND       PRES   REMARKS
PONTIAC        MOSUNNY   44  36  73 S18G24    29.97F
BLOOMINGTON    MOSUNNY   44  36  73 SW17G24   29.97S
DECATUR        SUNNY     46  35  65 S14G23    30.00F
PEORIA         SUNNY     47  33  58 SW14      29.95S
LACON*         SUNNY     45  31  58 SW13G18   29.95R
LINCOLN*       SUNNY     46  36  66 S17       29.97F
SPRINGFIELD    SUNNY     47  35  63 S17       29.96F
TAYLORVILLE    SUNNY     45  36  70 S15G21    29.98F
$$

ILZ033-039-045-046-055>057-062-063-252000-
EAST-CENTRAL ILLINOIS

CITY           SKY/WX    TMP DP  RH WIND       PRES   REMARKS
CHAMPAIGN      MOSUNNY   43  36  76 S17       30.00F
DANVILLE*      CLOUDY    40  34  80 S15G21    30.00S
RANTOUL*       PTSUNNY   44  36  75 SW14      30.00F
MATTOON        MOSUNNY   43  35  73 S12       30.02F
PARIS*         PTSUNNY   42  36  78 S14       30.05F
$$

ILZ079-100>102-252000-
SOUTHWEST ILLINOIS

CITY           SKY/WX    TMP DP  RH WIND       PRES   REMARKS
ALTON          SUNNY     48  34  57 S18G24    30.00F
BELLEVILLE     SUNNY     49  37  64 S16G23    30.00F
CAHOKIA*       SUNNY     50  35  56 S14G21    29.99F
SPARTA*        SUNNY     46  35  66 S14G21    30.04F
$$

ILZ064>066-069>071-074>076-080>082-084>086-088>090-092>094-252000-
SOUTH-CENTRAL ILLINOIS

CITY           SKY/WX    TMP DP  RH WIND       PRES   REMARKS
CARBONDALE     SUNNY     47  34  60 S18       30.08F
CAIRO*         MOSUNNY   49  37  62 S14       30.12F
EFFINGHAM*     SUNNY     47  32  56 S9        30.05F
MARION         MOSUNNY   48  36  61 S18G25    30.10F
MT. VERNON     SUNNY     48  36  61 S17       30.08S
CENTRALIA*     SUNNY     46  35  63 S17G23    30.05S
SALEM*         SUNNY     48  36  64 S17       30.05S
METROPOLIS*    SUNNY     48  36  63 SW13      30.12F
$$

ILZ067-068-072-073-078-083-087-091-252000-
SOUTHEAST ILLINOIS

CITY           SKY/WX    TMP DP  RH WIND       PRES   REMARKS
LAWRENCEVILLE  MOSUNNY   46  35  65 SW15      30.09S
FLORA*         SUNNY     46  35  67 S17       30.07S
FAIRFIELD*     MOSUNNY   47  36  65 S16       30.08S
HARRISBURG*    SUNNY     47  35  63 SW13G20   30.12F
ROBINSON*      MOSUNNY   45  35  68 S13       30.09S
CARMI*         PTSUNNY   49  39  66 S16       30.10S
$$

ABBREVIATIONS USED IN REMARKS
   TC - TEMPERATURE IN CELSIUS
  WCI - WIND CHILL INDEX
   HX - HEAT INDEX
  VSB - VISIBILITY
$$



USA.gov is the U.S. government's official web portal to all federal, state and local government web resources and services.